Location: Archamps
(46.1365°N, 6.1329°E)
Time: 06:53:21
(UTC+00:00)

SL-16 R/B - Pass Details

Date: 28 January 2023
Orbit: 842 x 846 km, 71.0° (Epoch: 21 March)

Event Time Altitude Azimuth Distance (km) Brightness Sun altitude
Rises 18:12:33 0° 182° (S) 3,384 5.5 -17.1°
Reaches altitude 10° 18:15:06 10° 175° (S) 2,454 4.7 -17.5°
Maximum altitude 18:20:19 41° 107° (ESE) 1,207 2.6 -18.4°
Enters shadow 18:22:09 32° 66° (ENE) 1,422 2.8 -18.7°
